This is the latest recevied weather packets stored in our database for station/object WD7OO. If no packets are shown the sender has not sent any weather packets the latest 10 day(s).
| Time | Temp. | Humidity | Pressure | Rain* | Wind** | Luminosity | Snow |
|---|---|---|---|---|---|---|---|
| 1777673852 | 8.89° C | 55% | 1017.3 hPa | 0 mm | - | 262 W/m² | - |
| 1777673549 | 8.89° C | 57% | 1017 hPa | 0 mm | - | 305 W/m² | - |
| 1777673247 | 8.33° C | 59% | 1017.3 hPa | 0 mm | - | 162 W/m² | - |
| 1777672944 | 8.33° C | 58% | 1017.1 hPa | 0 mm | - | 185 W/m² | - |
| 1777672641 | 8.33° C | 58% | 1017.4 hPa | 0 mm | - | 167 W/m² | - |
| 1777672336 | 8.89° C | 54% | 1017.1 hPa | 0 mm | - | 174 W/m² | - |
| 1777672031 | 8.89° C | 56% | 1017 hPa | 0 mm | - | 210 W/m² | - |
| 1777671728 | 8.89° C | 54% | 1017.1 hPa | 0 mm | - | 170 W/m² | - |
| 1777671424 | 8.33° C | 55% | 1017.1 hPa | 0 mm | - | 431 W/m² | - |
| 1777671120 | 9.44° C | 53% | 1017.2 hPa | 0 mm | - | 113 W/m² | - |
| 1777670816 | 10° C | 55% | 1016.8 hPa | 0 mm | - | 444 W/m² | - |
| 1777670513 | 10° C | 56% | 1017.1 hPa | 0 mm | - | 488 W/m² | - |
| 1777670210 | 9.44° C | 54% | 1017 hPa | 0 mm | - | 339 W/m² | - |
| 1777669907 | 9.44° C | 54% | 1017 hPa | 0 mm | - | 482 W/m² | - |
| 1777669604 | 8.89° C | 52% | 1017 hPa | 0 mm | - | 240 W/m² | - |
| 1777669301 | 10.56° C | 51% | 1016.9 hPa | 0 mm | - | 592 W/m² | - |
| 1777668997 | 10.56° C | 54% | 1016.8 hPa | 0 mm | - | 606 W/m² | - |
| 1777668695 | 10° C | 53% | 1017 hPa | 0 mm | - | 581 W/m² | - |
| 1777668391 | 9.44° C | 55% | 1016.9 hPa | 0 mm | - | 168 W/m² | - |
| 1777668087 | 9.44° C | 53% | 1017 hPa | 0 mm | - | 193 W/m² | - |
| 1777667784 | 9.44° C | 55% | 1016.9 hPa | 0 mm | - | 249 W/m² | - |
| 1777667481 | 9.44° C | 54% | 1017 hPa | 0 mm | - | 629 W/m² | - |
| 1777667179 | 11.11° C | 52% | 1016.9 hPa | 0 mm | - | 654 W/m² | - |
| 1777666875 | 10° C | 57% | 1016.8 hPa | 0 mm | - | 714 W/m² | - |
| 1777666572 | 10.56° C | 50% | 1016.7 hPa | 0 mm | - | 713 W/m² | - |
* Rain latest hour (hover to see other rain measurements)
** Current wind speed in m/s (hover to see current wind gust speed)